User: anonymous   Login
Location: Baix
(44.7118°N, 4.7648°E)
Time: 12:17:00
(UTC+00:00)
Language:

Cosmos 1733 - Orbit

View from above orbital plane
View from above orbital plane
View from above satellite
View from above satellite

Ground track
Ground track

The orbit data is extracted from the following two-line orbital elements,

1 16611U 86018A   20296.95053048 +.00000852 +00000-0 +40808-4 0  9990
2 16611 082.4871 266.2424 0013758 058.6554 301.6023 15.17509747894248
Epoch (UTC): 22 October 2020 22:48:45
Eccentricity: 0.0013758
inclination: 82.4871°
perigee height: 504 km
apogee height: 523 km
right ascension of ascending node: 266.2424°
argument of perigee: 58.6554°
revolutions per day: 15.17509747
mean anomaly at epoch: 301.6023°
orbit number at epoch: 89424

The dashed part of the orbit path shows where the satellite is in the earth's shadow,  

DLR